Lid_Strength_Index
3 3 3 3 3 3 3 3 3 3 3 3 3 3 3 3 3 6 8 6 8 9 9 8 7 10 9 10 11 10 10 9 11 12 12 13 13 12 12 11 12 13 15 15 15 17 18 7 8 11 10 10 8 9
3 3 3 3 3 3 3 3 3 3 3 3 3 3 3 3 3 4 8 7 6 10 9 7 6 6 6 7 9 11 11 10 9 11 12 12 12 13 13 15 10 14 12 13 13 13 9 8 9 8 8 9 9 9
3 3 3 2 2 2 2 2 2 2 2 2 3 3 3 3 3 4 6 8 9 10 10 11 9 7 6 6 5 12 10 7 9 7 9 10 13 11 14 13 12 10 9 11 11 10 9 8 7 8 8 8 8 8
2 2 2 2 1 1 1 1 1 1 2 2 2 2 2 2 3 3 6 8 8 9 11 11 6 8 5 7 7 7 8 7 8 8 10 11 12 10 12 11 11 10 9 10 11 10 8 7 7 7 8 7 7 8
1 1 1 1 1 0 0 0 1 1 1 1 1 1 1 2 2 4 7 8 6 9 12 11 8 7 8 8 8 6 7 9 9 11 11 11 10 11 11 11 12 9 10 11 12 8 8 8 7 7 8 8 8 8
1 1 0 0 0 0 -0 -0 -0 0 0 0 1 0 1 1 1 7 10 6 5 4 9 13 8 7 8 7 8 8 7 8 7 9 10 9 8 10 12 13 10 9 8 8 8 6 7 7 7 7 8 8 7 8
1 1 1 0 0 -0 -0 -0 -0 -0 0 0 0 0 0 0 5 7 9 4 3 5 8 12 11 7 6 7 7 7 6 6 7 8 9 9 10 10 12 14 9 8 7 7 6 6 7 7 8 7 8 7 7 8
0 0 -0 -0 -0 -0 -0 -1 -1 -0 -0 -0 -0 -0 0 0 2 5 4 2 3 7 6 11 11 10 6 8 8 7 8 7 8 8 8 8 9 10 12 10 9 7 6 6 6 6 6 7 7 8 7 8 9 9
0 -0 -0 -1 -1 -1 -1 -1 -1 -1 -0 -0 -0 -0 3 3 7 7 1 2 4 5 9 11 12 13 7 8 7 7 8 10 8 9 9 8 10 11 9 9 8 7 6 6 6 6 6 7 7 8 8 8 9 9
0 -0 -1 -1 -1 -1 -1 -1 -1 -1 -1 -0 3 6 8 6 1 0 4 7 7 5 6 10 7 11 9 10 9 9 8 9 12 9 8 10 10 8 7 7 6 6 5 5 8 8 7 8 8 8 8 8 8 8
-0 -0 -1 -1 -1 -1 -1 -1 -1 -1 0 5 7 8 5 1 2 6 8 8 9 9 8 9 9 10 8 10 10 9 10 10 13 11 11 12 13 8 6 6 6 6 5 5 5 5 5 5 7 7 8 7 7 7
-1 -1 -1 -1 -1 -1 -1 -1 -1 2 5 5 5 4 4 5 6 8 9 8 9 11 9 10 9 9 9 8 9 9 11 10 13 9 12 14 11 8 6 5 5 6 5 5 5 5 6 6 6 7 7 7 7 7
-1 -1 -1 -1 -1 -1 -1 -1 -1 0 1 4 5 7 7 7 11 11 12 11 11 8 7 7 9 9 9 8 9 10 11 12 9 12 13 11 9 7 7 6 5 5 5 4 5 5 5 5 5 6 6 6 6 7
-0 -1 -1 -1 -1 -1 -1 -1 -1 0 4 8 8 11 10 11 10 10 10 9 7 7 7 7 8 9 8 10 9 12 10 10 14 15 14 10 8 7 6 5 6 5 5 5 4 5 5 5 5 6 6 6 6 7
-1 -1 -1 -1 -1 -1 -1 -1 -1 3 5 8 7 11 10 7 7 7 6 6 6 5 6 8 8 8 10 11 10 11 13 14 12 13 11 8 8 7 6 5 5 6 5 4 4 5 5 5 6 7 7 6 6 6
-1 0 0 -1 -1 -1 -1 -0 2 3 5 6 7 9 8 9 8 8 7 7 5 6 5 6 9 11 11 10 12 13 13 14 12 9 8 7 7 6 6 5 5 5 5 5 5 5 5 6 7 7 7 7 6 6
0 3 -0 -1 -1 -1 -1 3 5 6 8 8 8 7 8 9 10 9 6 7 4 6 9 9 11 12 9 12 13 10 12 10 8 7 8 7 7 7 6 5 5 5 5 5 6 6 6 7 7 7 8 8 7 6
2 2 -1 -0 1 2 4 3 6 7 8 7 9 9 9 9 9 8 6 5 6 7 7 9 7 11 12 13 12 9 8 8 7 6 6 6 7 6 5 6 5 5 6 6 6 6 7 7 7 7 7 7 7 7
2 2 -1 -1 1 4 6 6 5 9 8 8 8 8 9 9 8 6 6 5 4 4 6 8 10 11 11 8 8 8 8 6 7 6 6 5 5 5 4 5 6 6 6 6 6 6 6 7 7 7 7 6 7 6
-1 -1 -1 -1 1 4 5 7 4 8 9 9 8 9 8 8 6 6 7 6 6 7 8 9 9 8 8 7 6 6 5 5 6 7 6 5 5 4 4 6 6 5 6 6 7 8 7 7 7 6 6 7 6 7
1 2 0 2 4 4 5 7 7 7 8 9 7 7 7 6 8 8 8 6 8 9 9 7 7 6 6 5 4 4 5 5 7 7 6 6 5 4 4 5 5 6 7 7 7 8 7 7 7 7 7 7 7 7
2 0 3 3 5 4 5 6 8 8 9 8 7 7 9 10 10 8 7 9 9 8 7 7 6 5 5 5 5 6 5 5 5 5 6 6 5 5 6 6 7 7 7 7 7 7 6 7 6 6 7 7 7 6
1 2 3 4 6 7 9 6 9 8 9 8 8 9 10 10 8 5 9 7 7 6 5 5 4 5 6 6 6 6 5 5 5 4 4 4 4 5 6 5 6 6 7 8 6 6 6 7 7 7 7 7 7 7
1 4 6 7 7 9 6 8 6 7 8 9 10 10 9 8 6 8 10 8 6 4 5 5 6 7 7 7 7 7 4 5 5 4 3 4 6 6 5 6 6 7 7 7 7 7 6 6 8 7 6 6 7 7
7 9 8 10 7 9 9 9 8 9 10 9 9 9 9 8 10 10 10 8 6 6 6 6 6 7 8 8 7 6 4 3 4 5 4 5 6 6 6 7 7 7 6 6 7 7 7 7 7 7 7 6 6 6
10 8 11 8 8 9 9 10 9 9 9 9 9 8 8 9 10 11 9 8 7 7 8 7 7 8 8 8 7 7 6 3 3 5 5 5 5 6 6 6 7 7 6 6 6 7 7 7 7 7 7 7 10 6
11 9 8 6 7 7 9 8 8 9 9 10 9 9 11 11 11 8 6 4 5 6 7 6 6 7 7 8 7 6 5 4 3 3 4 5 5 5 4 6 7 6 6 6 6 6 7 7 7 8 7 6 6 5
7 7 9 8 8 8 9 9 9 9 9 8 9 10 11 10 9 6 6 5 4 6 6 5 5 6 6 6 6 5 5 4 2 5 5 5 5 5 5 5 4 8 5 5 6 6 6 6 7 7 7 6 6 4
8 7 7 8 8 8 8 9 8 7 6 8 9 9 8 6 5 5 5 4 5 5 5 5 5 5 5 5 4 4 4 4 6 7 7 8 7 6 5 5 5 5 5 7 11 8 5 5 5 5 5 6 4 4
8 6 8 7 8 9 7 7 8 6 6 6 7 7 6 6 5 5 5 5 6 6 5 5 5 6 6 6 5 4 4 3 5 5 7 7 7 6 5 5 6 6 6 6 7 7 10 6 6 4 4 4 4 4
7 8 8 8 8 7 6 6 6 6 6 8 7 7 8 6 5 5 4 5 4 5 5 5 4 4 5 5 4 5 6 5 5 5 5 5 5 5 5 5 6 6 6 6 5 6 6 5 5 5 4 5 6 6
7 8 8 9 9 7 6 7 7 7 7 7 8 7 7 7 7 5 3 4 4 4 7 5 5 5 4 4 4 4 8 4 5 4 4 4 5 4 4 4 4 5 5 5 4 5 5 5 4 4 5 7 7 7
10 10 8 9 10 9 8 7 7 8 8 8 8 7 7 7 8 5 3 3 4 3 3 3 4 3 3 3 3 3 7 6 7 9 9 9 8 7 4 4 4 4 5 4 5 4 4 4 4 5 6 7 7 8